This is the latest recevied weather packets stored in our database for station/object W4ZHA. If no packets are shown the sender has not sent any weather packets the latest 1 day(s).
| Time | Temp. | Humidity | Pressure | Rain* | Wind** | Luminosity | Snow |
|---|---|---|---|---|---|---|---|
| 1778006282 | 25° C | 45% | 1013.4 hPa | 0 mm | 0 m/s | 414 W/m² | - |
| 1778005979 | 25° C | 45% | 1013.4 hPa | 0 mm | 0 m/s | 501 W/m² | - |
| 1778005676 | 25.56° C | 45% | 1013.4 hPa | 0 mm | 2.24 m/s, 143° | 473 W/m² | - |
| 1778005372 | 25.56° C | 45% | 1013.8 hPa | 0 mm | 0 m/s | 515 W/m² | - |
| 1778005069 | 25.56° C | 45% | 1013.8 hPa | 0 mm | 0 m/s | 460 W/m² | - |
| 1778004766 | 25° C | 46% | 1013.8 hPa | 0 mm | 0 m/s | 475 W/m² | - |
| 1778004463 | 25.56° C | 45% | 1013.8 hPa | 0 mm | 0 m/s | 510 W/m² | - |
| 1778004159 | 25.56° C | 45% | 1013.8 hPa | 0 mm | 0 m/s | 395 W/m² | - |
| 1778003856 | 25.56° C | 45% | 1013.8 hPa | 0 mm | 0 m/s | 306 W/m² | - |
| 1778003552 | 25° C | 46% | 1014.1 hPa | 0 mm | 0.89 m/s, 156° | 413 W/m² | - |
| 1778003249 | 25.56° C | 45% | 1013.8 hPa | 0 mm | 0 m/s | 315 W/m² | - |
| 1778002946 | 25° C | 46% | 1014.1 hPa | 0 mm | 0 m/s | 553 W/m² | - |
| 1778002642 | 25° C | 45% | 1014.1 hPa | 0 mm | 0.45 m/s, 192° | 312 W/m² | - |
| 1778002339 | 25.56° C | 45% | 1014.1 hPa | 0 mm | 0 m/s | 523 W/m² | - |
| 1778002036 | 25.56° C | 45% | 1014.4 hPa | 0 mm | 0 m/s | 450 W/m² | - |
| 1778001733 | 25° C | 46% | 1014.4 hPa | 0 mm | 0 m/s | 444 W/m² | - |
| 1778001433 | 25.56° C | 45% | 1014.4 hPa | 0 mm | 0 m/s | 451 W/m² | - |
| 1778001130 | 24.44° C | 46% | 1015.1 hPa | 0 mm | 0 m/s | 436 W/m² | - |
| 1778000827 | 24.44° C | 46% | 1014.8 hPa | 0 mm | 0 m/s | 404 W/m² | - |
| 1778000524 | 25° C | 46% | 1014.8 hPa | 0 mm | 0 m/s | 299 W/m² | - |
| 1778000228 | 25° C | 46% | 1015.1 hPa | 0 mm | 0 m/s | 398 W/m² | - |
| 1777999920 | 23.89° C | 47% | 1014.8 hPa | 0 mm | 0.45 m/s, 280° | 379 W/m² | - |
| 1777999615 | 23.89° C | 47% | 1015.1 hPa | 0 mm | 0 m/s | 436 W/m² | - |
| 1777999313 | 23.89° C | 46% | 1015.1 hPa | 0 mm | 0 m/s | 387 W/m² | - |
| 1777999011 | 23.89° C | 46% | 1015.1 hPa | 0 mm | 0 m/s | 204 W/m² | - |
* Rain latest hour (hover to see other rain measurements)
** Current wind speed in m/s (hover to see current wind gust speed)